This demonstration page uses our WeatherBlox Daily Observations layout. Learn more.

Left ArrowRight Arrow

44.89941, -97.11507

Hourly Observations for April 24, 2016

Temp ( °F °C ) Dew Point ( °F °C ) Humidity (%) Winds ( mph kmh ) Pressure ( in mb ) Visibility ( mi km ) Precip ( " mm )
12:53 am 00:53 Clear 65 18.3 50 10 59 59 SE 14 22 29.62 1003 10 16 0.00 0.00
1:53 am 01:53 Clear 64 17.8 50 10 60 60 SSE 16 26 29.60 1002 10 16 0.00 0.00
2:53 am 02:53 Clear 62 16.7 50 10 65 65 SSE 16 26 29.58 1002 10 16 0.00 0.00
3:53 am 03:53 Clear 61 16.1 49 9.4 65 65 SSE 15 24 29.56 1001 10 16 0.00 0.00
4:53 am 04:53 Clear 60 15.6 49 9.4 67 67 SSE 13 20 29.55 1001 10 16 0.00 0.00
5:53 am 05:53 Clear 59 15 49 9.4 69 69 SSE 9 15 29.53 1000 10 16 0.00 0.00
6:53 am 06:53 Sunny 59 15 49 9.4 69 69 ESE 9 15 29.54 1000 10 16 0.00 0.00
7:53 am 07:53 Sunny 58 14.4 49 9.4 72 72 E 9 15 29.54 1000 10 16 0.00 0.00
8:53 am 08:53 Sunny 61 16.1 51 10.6 70 70 ESE 13 20 29.54 1001 10 16 0.00 0.00
9:53 am 09:53 Mostly Sunny 66 18.9 52 11.1 61 61 SE 15 24 29.54 1000 10 16 0.00 0.00
10:53 am 10:53 Sunny 68 20 52 11.1 57 57 SE 16 26 29.52 1000 10 16 0.00 0.00
11:53 am 11:53 Cloudy 69 20.6 54 12.2 59 59 S 21 33 29.52 1000 10 16 0.00 0.00
12:53 pm 12:53 Mostly Sunny 72 22.2 54 12.2 53 53 S 22 35 29.48 998 10 16 0.00 0.03
1:53 pm 13:53 Mostly Cloudy 71 21.7 54 12.2 55 55 S 13 20 29.48 998 10 16 0.00 0.00
2:53 pm 14:53 Mostly Cloudy with Light Rain 71 21.7 55 12.8 57 57 S 13 20 29.48 998 10 16 0.00 0.03
3:53 pm 15:53 Mostly Cloudy 74 23.3 55 12.8 52 52 SSE 10 17 29.48 998 10 16 0.00 0.03
4:34 pm 16:34 Cloudy with Thunderstorms 71 21.7 56 13.3 59 59 SSE 20 31 29.41 996 10 16 0.00 0.00
4:53 pm 16:53 Cloudy with Thunderstorms 69 20.6 59 15 70 70 S 14 22 29.46 998 10 16 0.03 0.76
5:01 pm 17:01 Mostly Cloudy 69 20.6 59 15 70 70 SSE 12 19 29.41 996 10 16 0.00 0.00
5:50 pm 17:50 Cloudy with Thunderstorms 68 20 57 14 69 69 S 17 28 29.44 997 10 16 0.00 0.00
5:53 pm 17:53 Cloudy with Thunderstorms 68 20 57 13.9 68 68 S 16 26 29.47 998 10 16 0.00 0.00
6:08 pm 18:08 Cloudy with Light Rain 67 19.4 58 14.4 73 73 S 12 19 29.47 998 10 16 0.00 0.03
6:53 pm 18:53 Sunny 68 20 57 13.9 68 68 SSE 9 15 29.47 998 10 16 0.00 0.03
7:53 pm 19:53 Cloudy with Thunderstorms 67 19.4 57 13.9 71 71 S 13 20 29.47 998 10 16 0.00 0.00
8:20 pm 20:20 Mostly Cloudy with Nearby Thunderstorms 66 18.9 57 13.9 73 73 VRB 7 11 29.44 997 10 16 0.00 0.00
8:53 pm 20:53 Cloudy with Light Rain 61 16.1 57 13.9 87 87 ENE 8 13 29.47 998 7 11 0.00 0.03
9:01 pm 21:01 Cloudy with Light Rain 61 16.1 57 13.9 87 87 ENE 12 19 29.44 997 7 11 0.01 0.25
9:12 pm 21:12 Cloudy with Light Rain 59 15 56 13.3 90 90 NE 14 22 29.50 999 7 11 0.01 0.25
9:21 pm 21:21 Cloudy with Light Rain 58 14.4 55 12.8 90 90 ENE 13 20 29.50 999 6 10 0.02 0.51
9:40 pm 21:40 Cloudy with Mist and Fog 57 13.9 54 12.2 90 90 ENE 14 22 29.50 999 4 6 0.02 0.51
9:53 pm 21:53 Cloudy with Mist and Fog 56 13.3 54 12.2 93 93 E 13 20 29.48 998 4 6 0.02 0.51
10:02 pm 22:02 Cloudy with Nearby Thunderstorms 56 13.3 54 12.2 93 93 E 18 30 29.50 999 3 5 0.00 0.00
10:08 pm 22:08 Cloudy with Thunderstorms 56 13.3 54 12.2 93 93 ENE 21 33 29.50 999 2 3 0.00 0.00
10:17 pm 22:17 Cloudy with Thunderstorms 55 12.8 53 11.7 93 93 E 15 24 29.50 999 2 2 0.00 0.00
10:24 pm 22:24 Cloudy with Nearby Thunderstorms 55 12.8 54 12.2 96 96 ENE 15 24 29.50 999 2 3 0.00 0.00
10:36 pm 22:36 Cloudy with Nearby Thunderstorms 55 12.8 53 11.7 93 93 ENE 15 24 29.50 999 3 5 0.00 0.00
10:44 pm 22:44 Cloudy with Nearby Thunderstorms 55 12.8 53 11.7 93 93 ENE 16 26 29.50 999 2 3 0.00 0.00
10:53 pm 22:53 Cloudy with Nearby Thunderstorms 54 12.2 53 11.7 97 97 ENE 12 19 29.49 999 2 2 0.00 0.00
10:59 pm 22:59 Cloudy with Mist and Fog 55 12.8 53 11.7 93 93 ENE 12 19 29.50 999 2 3 0.00 0.00
11:10 pm 23:10 Cloudy with Light Rain 54 12.2 53 11.7 97 97 NE 12 19 29.50 999 1 2 0.00 0.03
11:20 pm 23:20 Cloudy with Thunderstorms 54 12.2 53 11.7 97 97 NNE 10 17 29.50 999 1 1 0.00 0.03
11:27 pm 23:27 Cloudy with Thunderstorms 54 12.2 52 11.1 93 93 NE 16 26 29.47 998 1 2 0.01 0.25
11:32 pm 23:32 Cloudy with Thunderstorms 54 12.2 52 11.1 93 93 NE 17 28 29.47 998 2 3 0.01 0.25
11:41 pm 23:41 Cloudy with Thunderstorms 53 11.7 51 10.6 93 93 ENE 20 31 29.47 998 5 8 0.01 0.25
11:53 pm 23:53 Cloudy with Thunderstorms 55 12.8 52 11.1 90 90 ENE 14 22 29.47 998 8 13 0.01 0.25

Powered by AerisWeather